User: anonymous   Login
Location: Barrio Las Umbrías
(40.4173°N, 4.8685°W)
Time: 01:00:32
(UTC+00:00)
Language:

H-2A R/B - Orbit

View from above orbital plane
View from above orbital plane
View from above satellite
View from above satellite

Ground track
Ground track

The orbit data is extracted from the following two-line orbital elements,

1 38341U 12025E   22334.17690589  .00001023  00000-0  12413-3 0  9998
2 38341  98.4808 200.2957 0053264 232.9286 126.7050 14.85102805570248
Epoch (UTC): 30 November 2022 04:14:44
Eccentricity: 0.0053264
inclination: 98.4808°
perigee height: 576 km
apogee height: 650 km
right ascension of ascending node: 200.2957°
argument of perigee: 232.9286°
revolutions per day: 14.85102805
mean anomaly at epoch: 126.7050°
orbit number at epoch: 57024

The dashed part of the orbit path shows where the satellite is in the earth's shadow,  

DLR